Voltar ao catálogo

STARLINK-3781

AtivoComunicaçõesVLEO
NORAD 52272·PAYLOAD·🇺🇸 United States

Lançado Apr 21, 2022 de Cape Canaveral Space Force Station

Loading…

Próximas Passagens (próximas 24 horas)

TLE

AtualizadoSource: CelesTrak SupGP

Época: Sep 15, 2026, 01:28 UTC

1 52272C 22041M   26258.06159722  .00043169  00000+0  13884-2 0  2588
2 52272  53.1586 326.2420 0001046  82.7789  36.8672 15.31676141    17

Acompanhe STARLINK-3781 em tempo real com AllMySat

Download on the App Store